Volver al catálogo

STARLINK-11263

ActivoComunicacionesVLEO
NORAD 60725·PAYLOAD·🇺🇸 United States

Lanzado Aug 28, 2024 desde Cape Canaveral Space Force Station

Loading…

Próximos Pases (próximas 24 horas)

TLE

ActualizadoSource: CelesTrak SupGP

Época: Sep 14, 2026, 22:47 UTC

1 60725C 24152F   26257.94979167  .00056417  00000+0  46462-3 0  2572
2 60725  53.1569 263.3026 0001182 102.1903 129.8609 15.69686820    18

Sigue STARLINK-11263 en tiempo real con AllMySat

Download on the App Store